Bridgeport, WV

7:47 AM EST on December 04, 2016 (GMT -0500)
Benedum

Weather History for KCKB - November, 2012

Change the Weather History Date:

Wednesday, November 7, 2012

  Actual Average Record
Temperature  
Mean Temperature 36 °F -  
Max Temperature 42 °F 53 °F 79 °F (1938)
Min Temperature 30 °F 33 °F 10 °F (1930)
Degree Days  
Heating Degree Days 29    
Moisture  
Dew Point 27 °F    
Average Humidity 72    
Maximum Humidity 85    
Minimum Humidity 58    
Precipitation  
Precipitation 0.00 in - - ()
Sea Level Pressure  
Sea Level Pressure 29.95 in    
Wind  
Wind Speed 3 mph (NNE)    
Max Wind Speed 9 mph    
Max Gust Speed -    
Visibility 10 miles    
Events      
Averages and records for this station are not official NWS values.
T = Trace of Precipitation, MM = Missing Value Source: NWS Daily Summary

Daily Weather History Graph

Daily Weather History Graph

Search for Another Location

Airport or City:

Trip Planner

Search our weather history database for the weather conditions in past years. The results will help you decide how hot, cold, wet, or windy it might be!

Date:

Astronomy

Nov. 07, 2012 Rise Set
Actual Time 6:55 AM EST 5:12 PM EST
Civil Twilight 6:27 AM EST 5:40 PM EST
Nautical Twilight 5:55 AM EST 6:12 PM EST
Astronomical Twilight 5:24 AM EST 6:44 PM EST
Moon No Moon Rise 1:18 PM EST (11/7)
Length of Visible Light 11h 13m
Length of Day
10h 16m
Last Quarter, 43% of the Moon is Illuminated
Nov 7
Last Quarter
Nov 13
New
Nov 20
First Quarter
Nov 28
Full
Dec 6
Last Quarter

Hourly Weather History & Observations

Time (EST) Temp. Windchill Dew Point Humidity Pressure Visibility Wind Dir Wind Speed Gust Speed Precip Events Conditions
12:53 AM 35.1 °F 30.1 °F 26.1 °F 70% 29.92 in 10.0 mi East 5.8 mph - N/A   Clear
1:53 AM 33.1 °F - 26.1 °F 75% 29.91 in 10.0 mi Calm Calm - N/A   Clear
2:53 AM 32.0 °F - 25.0 °F 75% 29.90 in 10.0 mi Calm Calm - N/A   Clear
3:53 AM 30.9 °F - 26.1 °F 82% 29.90 in 10.0 mi Calm Calm - N/A   Clear
4:53 AM 30.9 °F 27.5 °F 26.1 °F 82% 29.89 in 10.0 mi NNE 3.5 mph - N/A   Clear
5:53 AM 30.9 °F - 26.1 °F 82% 29.90 in 10.0 mi Calm Calm - N/A   Clear
6:53 AM 30.9 °F - 26.1 °F 82% 29.90 in 10.0 mi Calm Calm - N/A   Clear
7:53 AM 30.9 °F - 27.0 °F 85% 29.93 in 10.0 mi Calm Calm - N/A   Clear
8:53 AM 34.0 °F - 28.0 °F 79% 29.94 in 10.0 mi Calm Calm - N/A   Clear
9:53 AM 37.9 °F - 28.9 °F 70% 29.93 in 10.0 mi Calm Calm - N/A   Clear
10:53 AM 39.9 °F 36.7 °F 28.9 °F 65% 29.93 in 10.0 mi NNE 4.6 mph - N/A   Clear
11:53 AM 41.0 °F 37.1 °F 30.0 °F 65% 29.92 in 10.0 mi North 5.8 mph - N/A   Clear
12:53 PM 42.1 °F 39.2 °F 28.9 °F 60% 29.91 in 10.0 mi North 4.6 mph - N/A   Clear
1:53 PM 42.1 °F 37.1 °F 28.0 °F 58% 29.91 in 10.0 mi North 8.1 mph - N/A   Partly Cloudy
2:53 PM 42.1 °F 36.6 °F 28.9 °F 60% 29.92 in 10.0 mi North 9.2 mph - N/A   Clear
3:53 PM 42.1 °F 38.4 °F 28.0 °F 58% 29.94 in 10.0 mi North 5.8 mph - N/A   Clear
4:53 PM 39.9 °F 34.5 °F 27.0 °F 60% 29.96 in 10.0 mi NNE 8.1 mph - N/A   Clear
6:53 PM 37.9 °F 34.4 °F 27.0 °F 65% 30.01 in 10.0 mi North 4.6 mph - N/A   Scattered Clouds
7:53 PM 37.0 °F 34.5 °F 27.0 °F 67% 30.01 in 10.0 mi North 3.5 mph - N/A   Clear
8:53 PM 35.1 °F - 27.0 °F 72% 30.03 in 10.0 mi Calm Calm - N/A   Clear
9:53 PM 34.0 °F - 26.1 °F 73% 30.04 in 10.0 mi Calm Calm - N/A   Clear
10:53 PM 32.0 °F - 26.1 °F 79% 30.03 in 10.0 mi Calm Calm - N/A   Clear
11:53 PM 30.0 °F - 25.0 °F 82% 30.04 in 8.0 mi Calm Calm - N/A   Clear